Wetterdaten: Samstag, 08.11.2014
Datum Zeit Temp. A. Feuchte A. Luftdruck Regen Wind Richtung Richtung Sonnenschein ET UV Solar Taupunkt Windchill Windben Empfang
08.11.2014 00:00 4,3 C 80 % 1013,2 hPa 0,0 l/m 0,0 km/h (0 Bft) N 360 0 min 0,000 mm 0,0 UV-I 0 W/m 1,2 C 4,3 C 0,0 km/h (0 Bft) 0,00 %
08.11.2014 00:15 4,4 C 80 % 1013,3 hPa 0,0 l/m 0,0 km/h (0 Bft) N 360 0 min 0,000 mm 0,0 UV-I 0 W/m 1,3 C 4,4 C 0,0 km/h (0 Bft) 0,00 %
08.11.2014 00:30 4,5 C 80 % 1013,4 hPa 0,0 l/m 0,0 km/h (0 Bft) N 360 0 min 0,000 mm 0,0 UV-I 0 W/m 1,4 C 4,5 C 0,0 km/h (0 Bft) 0,00 %
08.11.2014 00:45 4,6 C 80 % 1013,7 hPa 0,0 l/m 0,0 km/h (0 Bft) N 360 0 min 0,000 mm 0,0 UV-I 0 W/m 1,5 C 4,6 C 0,0 km/h (0 Bft) 0,00 %
08.11.2014 01:00 4,7 C 80 % 1013,9 hPa 0,0 l/m 0,0 km/h (0 Bft) N 360 0 min 0,000 mm 0,0 UV-I 0 W/m 1,6 C 4,7 C 0,0 km/h (0 Bft) 0,00 %
08.11.2014 01:15 4,8 C 80 % 1013,8 hPa 0,0 l/m 0,0 km/h (0 Bft) N 360 0 min 0,000 mm 0,0 UV-I 0 W/m 1,6 C 4,8 C 0,0 km/h (0 Bft) 0,00 %
08.11.2014 01:30 4,9 C 80 % 1014,1 hPa 0,0 l/m 0,0 km/h (0 Bft) N 360 0 min 0,000 mm 0,0 UV-I 0 W/m 1,7 C 4,9 C 0,0 km/h (0 Bft) 0,00 %
08.11.2014 01:45 4,1 C 80 % 1014,2 hPa 0,0 l/m 0,0 km/h (0 Bft) N 360 0 min 0,000 mm 0,0 UV-I 0 W/m 1,0 C 4,1 C 0,0 km/h (0 Bft) 0,00 %
08.11.2014 02:00 4,2 C 80 % 1014,3 hPa 0,0 l/m 0,0 km/h (0 Bft) N 360 0 min 0,000 mm 0,0 UV-I 0 W/m 1,1 C 4,2 C 0,0 km/h (0 Bft) 0,00 %
08.11.2014 02:15 4,3 C 80 % 1014,4 hPa 0,0 l/m 0,0 km/h (0 Bft) N 360 0 min 0,000 mm 0,0 UV-I 0 W/m 1,2 C 4,3 C 0,0 km/h (0 Bft) 0,00 %
08.11.2014 02:30 4,4 C 80 % 1014,4 hPa 0,0 l/m 0,0 km/h (0 Bft) N 360 0 min 0,000 mm 0,0 UV-I 0 W/m 1,3 C 4,4 C 0,0 km/h (0 Bft) 0,00 %
08.11.2014 02:45 4,5 C 80 % 1014,3 hPa 0,0 l/m 0,0 km/h (0 Bft) N 360 0 min 0,000 mm 0,0 UV-I 0 W/m 1,4 C 4,5 C 0,0 km/h (0 Bft) 0,00 %
08.11.2014 03:00 4,6 C 80 % 1014,4 hPa 0,0 l/m 0,0 km/h (0 Bft) N 360 0 min 0,000 mm 0,0 UV-I 0 W/m 1,5 C 4,6 C 0,0 km/h (0 Bft) 0,00 %
08.11.2014 03:15 4,7 C 80 % 1014,6 hPa 0,0 l/m 0,0 km/h (0 Bft) N 360 0 min 0,000 mm 0,0 UV-I 0 W/m 1,6 C 4,7 C 0,0 km/h (0 Bft) 0,00 %
08.11.2014 03:30 4,8 C 80 % 1014,5 hPa 0,0 l/m 0,0 km/h (0 Bft) N 360 0 min 0,000 mm 0,0 UV-I 0 W/m 1,6 C 4,8 C 0,0 km/h (0 Bft) 0,00 %
08.11.2014 03:45 4,9 C 80 % 1014,6 hPa 0,0 l/m 0,0 km/h (0 Bft) N 360 0 min 0,000 mm 0,0 UV-I 0 W/m 1,7 C 4,9 C 0,0 km/h (0 Bft) 0,00 %
08.11.2014 04:00 5,1 C 80 % 1014,7 hPa 0,0 l/m 0,0 km/h (0 Bft) N 360 0 min 0,000 mm 0,0 UV-I 0 W/m 1,9 C 5,1 C 0,0 km/h (0 Bft) 0,00 %
08.11.2014 04:15 5,2 C 80 % 1014,7 hPa 0,0 l/m 0,0 km/h (0 Bft) N 360 0 min 0,000 mm 0,0 UV-I 0 W/m 2,0 C 5,2 C 0,0 km/h (0 Bft) 0,00 %
08.11.2014 04:30 5,3 C 85 % 1014,9 hPa 0,0 l/m 0,0 km/h (0 Bft) N 360 0 min 0,000 mm 0,0 UV-I 0 W/m 3,0 C 5,3 C 0,0 km/h (0 Bft) 0,00 %
08.11.2014 04:45 5,4 C 85 % 1014,9 hPa 0,0 l/m 0,0 km/h (0 Bft) N 360 0 min 0,000 mm 0,0 UV-I 0 W/m 3,1 C 5,4 C 0,0 km/h (0 Bft) 0,00 %
08.11.2014 05:00 5,5 C 85 % 1014,9 hPa 0,0 l/m 0,0 km/h (0 Bft) N 360 0 min 0,000 mm 0,0 UV-I 0 W/m 3,2 C 5,5 C 0,0 km/h (0 Bft) 0,00 %
08.11.2014 05:15 5,6 C 85 % 1014,9 hPa 0,0 l/m 0,0 km/h (0 Bft) N 360 0 min 0,000 mm 0,0 UV-I 0 W/m 3,3 C 5,6 C 0,0 km/h (0 Bft) 0,00 %
08.11.2014 05:30 5,7 C 85 % 1014,8 hPa 0,0 l/m 0,0 km/h (0 Bft) N 360 0 min 0,000 mm 0,0 UV-I 0 W/m 3,4 C 5,7 C 0,0 km/h (0 Bft) 0,00 %
08.11.2014 05:45 5,8 C 85 % 1014,6 hPa 0,0 l/m 0,0 km/h (0 Bft) N 360 0 min 0,000 mm 0,0 UV-I 0 W/m 3,5 C 5,8 C 0,0 km/h (0 Bft) 0,00 %
08.11.2014 06:00 5,9 C 85 % 1014,7 hPa 0,0 l/m 0,0 km/h (0 Bft) N 360 0 min 0,000 mm 0,0 UV-I 0 W/m 3,6 C 5,9 C 0,0 km/h (0 Bft) 0,00 %
08.11.2014 06:15 5,1 C 85 % 1015,0 hPa 0,0 l/m 0,0 km/h (0 Bft) N 360 0 min 0,000 mm 0,0 UV-I 0 W/m 2,8 C 5,1 C 0,0 km/h (0 Bft) 0,00 %
08.11.2014 06:30 5,2 C 85 % 1014,9 hPa 0,0 l/m 0,0 km/h (0 Bft) N 360 0 min 0,000 mm 0,0 UV-I 0 W/m 2,9 C 5,2 C 0,0 km/h (0 Bft) 0,00 %
08.11.2014 06:45 5,3 C 85 % 1014,8 hPa 0,0 l/m 0,0 km/h (0 Bft) N 360 0 min 0,000 mm 0,0 UV-I 0 W/m 3,0 C 5,3 C 0,0 km/h (0 Bft) 0,00 %
08.11.2014 07:00 5,4 C 85 % 1015,2 hPa 0,0 l/m 0,0 km/h (0 Bft) N 360 0 min 0,000 mm 0,0 UV-I 0 W/m 3,1 C 5,4 C 0,0 km/h (0 Bft) 0,00 %
08.11.2014 07:15 5,5 C 80 % 1015,5 hPa 0,0 l/m 0,0 km/h (0 Bft) N 360 0 min 0,000 mm 0,0 UV-I 0 W/m 2,3 C 5,5 C 0,0 km/h (0 Bft) 0,00 %
08.11.2014 07:30 5,6 C 80 % 1015,7 hPa 0,0 l/m 0,0 km/h (0 Bft) N 360 0 min 0,000 mm 0,0 UV-I 0 W/m 2,4 C 5,6 C 0,0 km/h (0 Bft) 0,00 %
08.11.2014 07:45 5,7 C 80 % 1015,9 hPa 0,0 l/m 0,0 km/h (0 Bft) N 360 0 min 0,000 mm 0,0 UV-I 0 W/m 2,5 C 5,7 C 0,0 km/h (0 Bft) 0,00 %
08.11.2014 08:00 5,8 C 80 % 1016,1 hPa 0,0 l/m 0,0 km/h (0 Bft) N 360 0 min 0,000 mm 0,0 UV-I 0 W/m 2,6 C 5,8 C 0,0 km/h (0 Bft) 0,00 %
08.11.2014 08:15 5,9 C 80 % 1016,2 hPa 0,0 l/m 0,0 km/h (0 Bft) N 360 0 min 0,000 mm 0,0 UV-I 0 W/m 2,7 C 5,9 C 0,0 km/h (0 Bft) 0,00 %
08.11.2014 08:30 6,1 C 80 % 1016,3 hPa 0,0 l/m 0,0 km/h (0 Bft) N 360 0 min 0,000 mm 0,0 UV-I 0 W/m 2,9 C 6,1 C 0,0 km/h (0 Bft) 0,00 %
08.11.2014 08:45 6,2 C 80 % 1016,5 hPa 0,0 l/m 0,0 km/h (0 Bft) N 360 0 min 0,000 mm 0,0 UV-I 0 W/m 3,0 C 6,2 C 0,0 km/h (0 Bft) 0,00 %
08.11.2014 09:00 6,3 C 80 % 1016,5 hPa 0,0 l/m 0,0 km/h (0 Bft) N 360 0 min 0,000 mm 0,0 UV-I 0 W/m 3,1 C 6,3 C 0,0 km/h (0 Bft) 0,00 %
08.11.2014 09:15 6,4 C 80 % 1016,8 hPa 0,0 l/m 0,0 km/h (0 Bft) N 360 0 min 0,000 mm 0,0 UV-I 0 W/m 3,2 C 6,4 C 0,0 km/h (0 Bft) 0,00 %
08.11.2014 09:30 6,5 C 80 % 1016,6 hPa 0,0 l/m 0,0 km/h (0 Bft) N 360 0 min 0,000 mm 0,0 UV-I 0 W/m 3,3 C 6,5 C 0,0 km/h (0 Bft) 0,00 %
08.11.2014 09:45 6,6 C 80 % 1016,6 hPa 0,0 l/m 0,0 km/h (0 Bft) N 360 0 min 0,000 mm 0,0 UV-I 0 W/m 3,4 C 6,6 C 0,0 km/h (0 Bft) 0,00 %
08.11.2014 10:00 6,7 C 80 % 1016,8 hPa 0,0 l/m 0,0 km/h (0 Bft) N 360 0 min 0,000 mm 0,0 UV-I 0 W/m 3,5 C 6,7 C 0,0 km/h (0 Bft) 0,00 %
08.11.2014 10:15 6,8 C 80 % 1016,5 hPa 0,0 l/m 0,0 km/h (0 Bft) N 360 0 min 0,000 mm 0,0 UV-I 0 W/m 3,6 C 6,8 C 0,0 km/h (0 Bft) 0,00 %
08.11.2014 10:30 7,1 C 80 % 1016,5 hPa 0,0 l/m 0,0 km/h (0 Bft) N 360 0 min 0,000 mm 0,0 UV-I 0 W/m 3,9 C 7,1 C 0,0 km/h (0 Bft) 0,00 %
08.11.2014 10:45 7,2 C 80 % 1016,7 hPa 0,0 l/m 0,0 km/h (0 Bft) N 360 0 min 0,000 mm 0,0 UV-I 0 W/m 4,0 C 7,2 C 0,0 km/h (0 Bft) 0,00 %
08.11.2014 11:00 7,3 C 80 % 1016,6 hPa 0,0 l/m 0,0 km/h (0 Bft) N 360 0 min 0,000 mm 0,0 UV-I 0 W/m 4,1 C 7,3 C 0,0 km/h (0 Bft) 0,00 %
08.11.2014 11:15 7,4 C 80 % 1016,3 hPa 0,0 l/m 0,0 km/h (0 Bft) N 360 0 min 0,000 mm 0,0 UV-I 0 W/m 4,2 C 7,4 C 0,0 km/h (0 Bft) 0,00 %
08.11.2014 11:30 7,5 C 80 % 1016,1 hPa 0,0 l/m 0,0 km/h (0 Bft) N 360 0 min 0,000 mm 0,0 UV-I 0 W/m 4,3 C 7,5 C 0,0 km/h (0 Bft) 0,00 %
08.11.2014 11:45 7,6 C 80 % 1016,1 hPa 0,0 l/m 0,0 km/h (0 Bft) N 360 0 min 0,000 mm 0,0 UV-I 0 W/m 4,4 C 7,6 C 0,0 km/h (0 Bft) 0,00 %
08.11.2014 12:00 7,7 C 80 % 1015,8 hPa 0,0 l/m 0,0 km/h (0 Bft) N 360 0 min 0,000 mm 0,0 UV-I 0 W/m 4,5 C 7,7 C 0,0 km/h (0 Bft) 0,00 %
08.11.2014 12:15 7,8 C 80 % 1015,6 hPa 0,0 l/m 0,0 km/h (0 Bft) N 360 0 min 0,000 mm 0,0 UV-I 0 W/m 4,6 C 7,8 C 0,0 km/h (0 Bft) 0,00 %
08.11.2014 12:30 7,9 C 80 % 1015,6 hPa 0,0 l/m 0,0 km/h (0 Bft) N 360 0 min 0,000 mm 0,0 UV-I 0 W/m 4,7 C 7,9 C 0,0 km/h (0 Bft) 0,00 %
08.11.2014 12:45 9,8 C 80 % 1015,1 hPa 0,0 l/m 0,0 km/h (0 Bft) W-SW 252 0 min 0,000 mm 1,0 UV-I 111 W/m 6,5 C 9,8 C 0,0 km/h (0 Bft) 0,00 %
08.11.2014 13:00 9,6 C 80 % 1015,2 hPa 0,0 l/m 0,0 km/h (0 Bft) S-SW 200 0 min 0,000 mm 1,0 UV-I 122 W/m 6,3 C 9,6 C 0,0 km/h (0 Bft) 0,00 %
08.11.2014 13:15 9,4 C 80 % 1015,1 hPa 0,0 l/m 0,0 km/h (0 Bft) W-SW 251 0 min 0,000 mm 1,0 UV-I 133 W/m 6,1 C 9,4 C 0,0 km/h (0 Bft) 0,00 %
08.11.2014 13:30 9,3 C 81 % 1015,0 hPa 0,0 l/m 0,0 km/h (0 Bft) W-SW 240 0 min 0,000 mm 1,0 UV-I 123 W/m 6,2 C 9,3 C 0,0 km/h (0 Bft) 0,00 %
08.11.2014 13:45 9,4 C 81 % 1014,7 hPa 0,0 l/m 0,4 km/h (0 Bft) SW 215 0 min 0,000 mm 1,0 UV-I 134 W/m 6,3 C 9,4 C 4,0 km/h (1 Bft) 0,00 %
08.11.2014 14:00 9,6 C 81 % 1014,8 hPa 0,3 l/m 0,0 km/h (0 Bft) O-NO 73 0 min 0,000 mm 1,0 UV-I 120 W/m 6,5 C 9,6 C 0,0 km/h (0 Bft) 0,00 %
08.11.2014 14:15 9,4 C 82 % 1014,7 hPa 0,0 l/m 0,0 km/h (0 Bft) SW 222 0 min 0,000 mm 1,0 UV-I 120 W/m 6,5 C 9,4 C 0,0 km/h (0 Bft) 0,00 %
08.11.2014 14:30 9,3 C 82 % 1014,6 hPa 0,3 l/m 0,0 km/h (0 Bft) W-SW 256 0 min 0,000 mm 1,0 UV-I 110 W/m 6,4 C 9,3 C 0,0 km/h (0 Bft) 0,00 %
08.11.2014 14:45 9,3 C 83 % 1014,8 hPa 0,0 l/m 0,0 km/h (0 Bft) NW 320 0 min 0,000 mm 1,0 UV-I 116 W/m 6,6 C 9,3 C 0,0 km/h (0 Bft) 0,00 %
08.11.2014 15:00 8,9 C 83 % 1014,6 hPa 0,0 l/m 1,4 km/h (1 Bft) NO 38 0 min 0,000 mm 1,0 UV-I 90 W/m 6,2 C 8,9 C 4,0 km/h (1 Bft) 0,00 %
08.11.2014 15:15 8,8 C 83 % 1014,4 hPa 0,0 l/m 0,4 km/h (0 Bft) O-NO 66 0 min 0,000 mm 0,0 UV-I 80 W/m 6,1 C 8,8 C 4,0 km/h (1 Bft) 0,00 %
08.11.2014 15:30 8,6 C 83 % 1014,5 hPa 0,0 l/m 0,0 km/h (0 Bft) SW 229 0 min 0,000 mm 0,0 UV-I 56 W/m 5,9 C 8,6 C 0,0 km/h (0 Bft) 0,00 %
08.11.2014 15:45 8,5 C 84 % 1014,4 hPa 0,0 l/m 4,0 km/h (1 Bft) O-SO 105 15 min 0,000 mm 0,0 UV-I 67 W/m 6,0 C 8,5 C 4,0 km/h (1 Bft) 0,00 %
08.11.2014 16:00 8,4 C 84 % 1014,2 hPa 0,0 l/m 0,0 km/h (0 Bft) S-SW 210 0 min 0,000 mm 0,0 UV-I 0 W/m 5,9 C 8,4 C 0,0 km/h (0 Bft) 0,00 %
08.11.2014 16:15 8,3 C 84 % 1014,0 hPa 0,0 l/m 0,4 km/h (0 Bft) S 184 0 min 0,000 mm 0,0 UV-I 0 W/m 5,8 C 8,3 C 4,0 km/h (1 Bft) 0,00 %
08.11.2014 16:30 8,1 C 84 % 1013,8 hPa 0,0 l/m 0,4 km/h (0 Bft) W-SW 249 0 min 0,000 mm 0,0 UV-I 0 W/m 5,6 C 8,1 C 4,0 km/h (1 Bft) 0,00 %
08.11.2014 16:45 8,0 C 84 % 1013,6 hPa 0,0 l/m 0,7 km/h (0 Bft) O-SO 106 0 min 0,000 mm 0,0 UV-I 0 W/m 5,5 C 8,0 C 4,0 km/h (1 Bft) 0,00 %
08.11.2014 17:00 7,9 C 84 % 1013,3 hPa 0,0 l/m 2,9 km/h (1 Bft) O 90 0 min 0,000 mm 0,0 UV-I 0 W/m 5,4 C 7,9 C 4,0 km/h (1 Bft) 0,00 %
08.11.2014 17:15 7,6 C 84 % 1013,1 hPa 0,0 l/m 1,8 km/h (1 Bft) SO 139 0 min 0,000 mm 0,0 UV-I 0 W/m 5,1 C 7,6 C 4,0 km/h (1 Bft) 0,00 %
08.11.2014 17:30 7,4 C 83 % 1013,2 hPa 0,0 l/m 1,8 km/h (1 Bft) NO 54 0 min 0,000 mm 0,0 UV-I 0 W/m 4,7 C 7,4 C 4,0 km/h (1 Bft) 0,00 %
08.11.2014 17:45 7,2 C 83 % 1013,0 hPa 0,0 l/m 0,0 km/h (0 Bft) N 356 0 min 0,000 mm 0,0 UV-I 0 W/m 4,5 C 7,2 C 0,0 km/h (0 Bft) 0,00 %
08.11.2014 18:00 7,0 C 83 % 1013,2 hPa 0,0 l/m 0,0 km/h (0 Bft) S 180 0 min 0,000 mm 0,0 UV-I 0 W/m 4,3 C 7,0 C 0,0 km/h (0 Bft) 0,00 %
08.11.2014 18:15 7,0 C 83 % 1013,0 hPa 0,0 l/m 0,0 km/h (0 Bft) W-SW 251 0 min 0,000 mm 0,0 UV-I 0 W/m 4,3 C 7,0 C 0,0 km/h (0 Bft) 0,00 %
08.11.2014 18:30 6,6 C 83 % 1012,9 hPa 0,0 l/m 0,0 km/h (0 Bft) S 174 0 min 0,000 mm 0,0 UV-I 0 W/m 3,9 C 6,6 C 0,0 km/h (0 Bft) 0,00 %
08.11.2014 18:45 6,6 C 84 % 1013,0 hPa 0,0 l/m 0,0 km/h (0 Bft) N-NW 337 0 min 0,000 mm 0,0 UV-I 0 W/m 4,1 C 6,6 C 0,0 km/h (0 Bft) 0,00 %
08.11.2014 19:00 6,7 C 84 % 1012,7 hPa 0,0 l/m 0,4 km/h (0 Bft) N-NW 329 0 min 0,000 mm 0,0 UV-I 0 W/m 4,2 C 6,7 C 4,0 km/h (1 Bft) 0,00 %
08.11.2014 19:15 6,9 C 85 % 1012,8 hPa 0,0 l/m 0,4 km/h (0 Bft) NO 50 0 min 0,000 mm 0,0 UV-I 0 W/m 4,6 C 6,9 C 4,0 km/h (1 Bft) 0,00 %
08.11.2014 19:30 7,0 C 85 % 1012,3 hPa 0,0 l/m 5,4 km/h (1 Bft) O-SO 110 0 min 0,000 mm 0,0 UV-I 0 W/m 4,7 C 7,0 C 7,9 km/h (2 Bft) 0,00 %
08.11.2014 19:45 7,0 C 85 % 1012,3 hPa 0,0 l/m 0,4 km/h (0 Bft) N-NW 348 0 min 0,000 mm 0,0 UV-I 0 W/m 4,7 C 7,0 C 4,0 km/h (1 Bft) 0,00 %
08.11.2014 20:00 7,1 C 85 % 1012,3 hPa 0,0 l/m 0,0 km/h (0 Bft) SW 227 0 min 0,000 mm 0,0 UV-I 0 W/m 4,8 C 7,1 C 0,0 km/h (0 Bft) 0,00 %
08.11.2014 20:15 7,3 C 85 % 1012,1 hPa 0,0 l/m 6,5 km/h (2 Bft) O 80 0 min 0,000 mm 0,0 UV-I 0 W/m 4,9 C 7,2 C 11,9 km/h (2 Bft) 0,00 %
08.11.2014 20:30 7,3 C 84 % 1011,8 hPa 0,0 l/m 6,5 km/h (2 Bft) O-NO 69 0 min 0,000 mm 0,0 UV-I 0 W/m 4,8 C 7,2 C 7,9 km/h (2 Bft) 0,00 %
08.11.2014 20:45 7,4 C 84 % 1011,4 hPa 0,0 l/m 1,4 km/h (1 Bft) O-SO 112 0 min 0,000 mm 0,0 UV-I 0 W/m 4,9 C 7,4 C 4,0 km/h (1 Bft) 0,00 %
08.11.2014 21:00 7,2 C 83 % 1011,6 hPa 0,0 l/m 3,2 km/h (1 Bft) O 84 0 min 0,000 mm 0,0 UV-I 0 W/m 4,5 C 7,2 C 4,0 km/h (1 Bft) 0,00 %
08.11.2014 21:15 7,1 C 83 % 1011,4 hPa 0,0 l/m 0,4 km/h (0 Bft) S 181 0 min 0,000 mm 0,0 UV-I 0 W/m 4,4 C 7,1 C 4,0 km/h (1 Bft) 0,00 %
08.11.2014 21:30 7,2 C 82 % 1010,9 hPa 0,0 l/m 3,2 km/h (1 Bft) O-SO 116 0 min 0,000 mm 0,0 UV-I 0 W/m 4,3 C 7,2 C 4,0 km/h (1 Bft) 0,00 %
08.11.2014 21:45 7,1 C 82 % 1010,8 hPa 0,0 l/m 3,2 km/h (1 Bft) O-SO 117 0 min 0,000 mm 0,0 UV-I 0 W/m 4,2 C 7,1 C 4,0 km/h (1 Bft) 0,00 %
08.11.2014 22:00 6,8 C 82 % 1010,6 hPa 0,0 l/m 3,2 km/h (1 Bft) O 101 0 min 0,000 mm 0,0 UV-I 0 W/m 3,9 C 6,8 C 4,0 km/h (1 Bft) 0,00 %
08.11.2014 22:15 6,7 C 82 % 1010,7 hPa 0,0 l/m 5,4 km/h (1 Bft) O 90 0 min 0,000 mm 0,0 UV-I 0 W/m 3,8 C 6,7 C 11,9 km/h (2 Bft) 0,00 %
08.11.2014 22:30 6,6 C 82 % 1010,3 hPa 0,0 l/m 6,5 km/h (2 Bft) O-SO 116 0 min 0,000 mm 0,0 UV-I 0 W/m 3,8 C 6,5 C 11,9 km/h (2 Bft) 0,00 %
08.11.2014 22:45 6,6 C 82 % 1010,1 hPa 0,0 l/m 5,8 km/h (2 Bft) O-SO 110 0 min 0,000 mm 0,0 UV-I 0 W/m 3,8 C 6,6 C 7,9 km/h (2 Bft) 0,00 %
08.11.2014 23:00 6,6 C 81 % 1010,0 hPa 0,0 l/m 9,7 km/h (2 Bft) O-SO 102 0 min 0,000 mm 0,0 UV-I 0 W/m 3,6 C 4,0 C 11,9 km/h (2 Bft) 0,00 %
08.11.2014 23:15 6,6 C 81 % 1010,1 hPa 0,0 l/m 7,9 km/h (2 Bft) O-SO 105 0 min 0,000 mm 0,0 UV-I 0 W/m 3,6 C 5,4 C 11,9 km/h (2 Bft) 0,00 %
08.11.2014 23:30 6,6 C 81 % 1009,8 hPa 0,0 l/m 5,4 km/h (1 Bft) O 81 0 min 0,000 mm 0,0 UV-I 0 W/m 3,6 C 6,6 C 7,9 km/h (2 Bft) 0,00 %
08.11.2014 23:45 6,6 C 81 % 1010,0 hPa 0,0 l/m 5,4 km/h (1 Bft) O 92 0 min 0,000 mm 0,0 UV-I 0 W/m 3,6 C 6,6 C 7,9 km/h (2 Bft) 0,00 %
_ Min-Zeit 01:45 00:00 23:30 - 00:00 - - - - - - 01:45 23:00 00:00 00:00
Minimum _ 4,1 C 80 % 1009,8 hPa - 0,0 km/h (0 Bft) - - - - - - 1,0 C 4,0 C 0,0 km/h (0 Bft) 0,00 %
_ Max-Zeit 12:45 04:30 09:15 14:00 23:00 - - 15:45 00:00 12:45 13:45 14:45 12:45 20:15 00:00
Maximum _ 9,8 C 85 % 1016,8 hPa 0,3 l/m 9,7 km/h
O-SO (2 Bft)
- - 15 min 0,000 mm 1,0 UV-I 134 W/m 6,6 C 9,8 C 11,9 km/h
O (2 Bft)
0,00 %
Durchschnitt _ 6,7 C 82 % 1014,1 hPa #0,6 l/m 1,0 km/h (0 Bft) O-SO - #15 min. #0,000 mm 1,0 UV-I 106 W/m 3,8 C 6,6 C 1,8 km/h (1 Bft) 0,00 %